This is the latest recevied weather packets stored in our database for station/object KC4JIR. If no packets are shown the sender has not sent any weather packets the latest 10 day(s).
| Time | Temp. | Humidity | Pressure | Rain* | Wind** | Luminosity | Snow |
|---|---|---|---|---|---|---|---|
| 1778072343 | 19.44° C | 91% | 1013.6 hPa | 0 mm | - | 105 W/m² | - |
| 1778072041 | 18.89° C | 91% | 1013.5 hPa | 0 mm | - | 95 W/m² | - |
| 1778071739 | 18.89° C | 92% | 1013.8 hPa | 0 mm | - | 88 W/m² | - |
| 1778071435 | 18.89° C | 93% | 1013.8 hPa | 0 mm | - | 82 W/m² | - |
| 1778071133 | 18.33° C | 93% | 1013.9 hPa | 0 mm | - | 77 W/m² | - |
| 1778070831 | 17.78° C | 93% | 1013.8 hPa | 0 mm | - | 75 W/m² | - |
| 1778070528 | 17.78° C | 94% | 1013.6 hPa | 0 mm | - | 66 W/m² | - |
| 1778070225 | 17.78° C | 94% | 1013.7 hPa | 0 mm | - | 56 W/m² | - |
| 1778069924 | 17.22° C | 95% | 1013.6 hPa | 0 mm | - | 53 W/m² | - |
| 1778069620 | 17.22° C | 95% | 1013.4 hPa | 0 mm | - | 49 W/m² | - |
| 1778069317 | 16.67° C | 95% | 1013.4 hPa | 0 mm | - | 47 W/m² | - |
| 1778069015 | 16.67° C | 96% | 1013.4 hPa | 0 mm | - | 46 W/m² | - |
| 1778068712 | 16.67° C | 96% | 1013 hPa | 0 mm | - | 47 W/m² | - |
| 1778068410 | 16.67° C | 97% | 1013.1 hPa | 0 mm | - | 43 W/m² | - |
| 1778068108 | 16.11° C | 96% | 1012.9 hPa | 0 mm | - | 24 W/m² | - |
| 1778067805 | 16.11° C | 96% | 1013 hPa | 0 mm | - | 21 W/m² | - |
| 1778067504 | 16.11° C | 96% | 1012.7 hPa | 0 mm | - | 16 W/m² | - |
| 1778067201 | 16.11° C | 96% | 1012.8 hPa | 0 mm | - | 22 W/m² | - |
| 1778066897 | 16.11° C | 97% | 1012.7 hPa | 0 mm | - | 26 W/m² | - |
| 1778066595 | 16.11° C | 96% | 1013 hPa | 0 mm | - | 21 W/m² | - |
| 1778066292 | 16.11° C | 97% | 1012.7 hPa | 0 mm | - | 13 W/m² | - |
| 1778065990 | 16.11° C | 97% | 1012.7 hPa | 0 mm | - | 8 W/m² | - |
| 1778065687 | 15.56° C | 96% | 1012.4 hPa | 0 mm | - | 5 W/m² | - |
| 1778065384 | 15.56° C | 96% | 1012.5 hPa | 0 mm | - | 4 W/m² | - |
| 1778065081 | 15.56° C | 96% | 1012.2 hPa | 0 mm | - | 4 W/m² | - |
* Rain latest hour (hover to see other rain measurements)
** Current wind speed in m/s (hover to see current wind gust speed)